Date,TemperatureHighF,TemperatureAvgF,TemperatureLowF,DewpointHighF,DewpointAvgF,DewpointLowF,HumidityHigh,HumidityAvg,HumidityLow,PressureMaxIn,PressureMinIn,WindSpeedMaxMPH,WindSpeedAvgMPH,GustSpeedMaxMPH,PrecipitationSumIn
2013-2-1,58.2,49.2,40.4,34.0,26.2,15.0,64,43,20,30.37,30.17,15,6,22,0.00
2013-2-2,55.6,45.6,35.3,45.0,34.2,18.0,84,65,41,30.37,30.11,12,4,14,0.00
2013-2-3,60.9,51.7,44.8,43.0,36.0,31.0,81,56,37,30.11,29.94,16,7,27,0.00
2013-2-4,53.6,48.0,40.1,44.0,36.5,29.0,85,65,42,30.16,30.05,6,1,9,0.00
2013-2-5,66.2,53.9,45.0,52.0,47.1,40.0,93,79,50,30.09,29.97,14,5,22,0.00
2013-2-6,66.6,57.3,51.4,54.0,51.4,49.0,92,81,55,30.19,30.03,11,2,13,0.00
2013-2-7,59.1,56.2,54.1,56.0,54.1,50.0,96,92,87,30.17,29.71,11,5,21,1.02
2013-2-8,64.0,55.6,49.0,58.0,50.1,46.0,97,82,63,30.06,29.71,16,6,22,0.01
2013-2-9,58.7,50.9,45.6,50.0,39.1,29.0,91,66,34,30.35,30.07,16,6,19,0.00
2013-2-10,63.2,55.0,48.1,57.0,49.5,43.0,92,82,75,30.40,30.20,10,4,14,0.00
2013-2-11,64.7,62.0,59.5,62.0,59.7,56.0,95,92,84,30.23,30.06,17,4,24,1.01
2013-2-12,59.8,56.2,52.4,58.0,53.4,47.0,96,90,79,30.13,29.89,13,2,19,1.09
2013-2-13,71.5,59.9,50.3,65.0,54.7,48.0,96,84,48,29.89,29.70,22,5,31,0.52
2013-2-14,53.8,50.5,47.0,49.0,42.6,38.0,89,75,61,30.09,29.86,14,2,17,0.00
2013-2-15,55.8,50.5,46.3,45.0,43.6,41.0,91,78,62,30.12,29.98,10,2,13,0.00
2013-2-16,52.7,45.6,38.9,46.0,41.1,33.0,92,84,67,30.05,29.84,26,4,31,0.04
2013-2-17,47.0,39.5,32.9,33.0,22.8,16.0,80,53,31,30.32,30.05,23,4,24,0.00
2013-2-18,49.6,43.9,35.4,43.0,29.5,25.0,83,58,40,30.44,30.27,5,0,10,0.00
2013-2-19,63.0,55.1,47.4,55.0,50.5,43.0,94,85,63,30.27,29.99,18,4,30,0.13
2013-2-20,53.1,48.2,39.7,50.0,36.9,27.0,94,67,38,30.17,30.05,7,1,11,0.01
2013-2-21,54.3,49.8,43.8,51.0,44.2,40.0,92,81,65,30.20,30.10,9,1,9,0.00
2013-2-22,64.1,56.1,49.8,62.0,52.3,47.0,96,87,74,30.20,30.04,20,7,32,0.28
2013-2-23,62.2,53.2,46.9,60.0,51.8,45.0,96,95,92,30.05,29.80,14,3,22,1.73
2013-2-24,62.2,55.1,49.3,56.0,51.1,47.0,96,87,66,30.01,29.77,9,2,14,0.01
2013-2-25,54.3,50.4,45.1,53.0,47.9,42.0,95,91,82,30.09,29.95,22,10,30,0.23
2013-2-26,69.6,62.4,51.8,65.0,58.5,49.0,96,87,65,29.96,29.60,27,11,35,0.43
2013-2-27,62.9,53.7,49.9,53.0,44.4,39.0,85,71,58,29.92,29.71,18,6,22,0.00
2013-2-28,58.4,53.0,48.9,44.0,39.2,34.0,75,60,40,29.91,29.79,14,5,25,0.00